Location: Casilda
(33.0440°S, 61.1680°W)
Time: 02:08:27
(UTC-03:00)

ISS - Pass Details

Date: 14 February 2020
Orbit: 415 x 423 km, 51.6° (Epoch: 27 February)

Event Time Altitude Azimuth Distance (km) Brightness Sun altitude
Exits shadow 03:47:43 10° 159° (SSE) 1,494 -0.2 -31.7°
Maximum altitude 03:48:05 11° 153° (SSE) 1,485 -0.2 -31.7°
Drops below altitude 10° 03:48:46 10° 141° (SE) 1,512 -0.1 -31.6°
Sets 03:52:32 0° 98° (E) 2,372 0.8 -31.0°
